Shreveport, LA

9:38 PM CST on February 12, 2016 (GMT -0600)
Shreveport Downtown

Weather History for KDTN - November, 2013

Change the Weather History Date:

Saturday, November 2, 2013

  Actual Average (KSHV) Record (KSHV)
Temperature  
Mean Temperature 55 °F 61 °F  
Max Temperature 66 °F 73 °F 86 °F (1936)
Min Temperature 46 °F 49 °F 26 °F (1951)
Degree Days  
Heating Degree Days 10 6  
Month to date heating degree days 11  
Since 1 July heating degree days 97  
Cooling Degree Days 0 2  
Month to date cooling degree days 4  
Year to date cooling degree days 2453  
Growing Degree Days 5 (Base 50)    
Moisture  
Dew Point 42 °F    
Average Humidity 59    
Maximum Humidity 89    
Minimum Humidity 36    
Precipitation  
Precipitation 0.00 in 0.16 in 1.82 in (2010)
Month to date precipitation 0.32  
Year to date precipitation 42.43  
Snow  
Snow 0.00 in - - ()
Month to date snowfall  
Since 1 July snowfall  
Since 1 September snowfall  
Snow Depth -    
Sea Level Pressure  
Sea Level Pressure 30.14 in    
Wind  
Wind Speed 7 mph (NNW)    
Max Wind Speed 15 mph    
Max Gust Speed 23 mph    
Visibility 10 miles    
Events      
T = Trace of Precipitation, MM = Missing Value Source: NWS Daily Summary

Daily Weather History Graph

Daily Weather History Graph

Search for Another Location

Airport or City:

Trip Planner

Search our weather history database for the weather conditions in past years. The results will help you decide how hot, cold, wet, or windy it might be!

Date:

Astronomy

Nov. 02, 2013 Rise Set
Actual Time 7:33 AM CDT 6:23 PM CDT
Civil Twilight 7:07 AM CDT 6:48 PM CDT
Nautical Twilight 6:38 AM CDT 7:17 PM CDT
Astronomical Twilight 6:10 AM CDT 7:46 PM CDT
Moon 6:33 AM CDT (11/2) 5:54 PM CDT (11/2)
Length of Visible Light 11h 40m
Length of Day
10h 49m
Waning Crescent, 1% of the Moon is Illuminated
Nov 2
Waning Crescent
Nov 3
New
Nov 9
First Quarter
Nov 17
Full
Nov 25
Last Quarter

Hourly Weather History & Observations

Time (CDT) Temp. Dew Point Humidity Pressure Visibility Wind Dir Wind Speed Gust Speed Precip Events Conditions
12:53 AM 62.1 °F 48.9 °F 62% 29.98 in 10.0 mi NW 6.9 mph - N/A   Mostly Cloudy
1:53 AM 60.1 °F 48.0 °F 64% 30.00 in 10.0 mi NNW 6.9 mph - N/A   Partly Cloudy
2:53 AM 59.0 °F 46.0 °F 62% 30.02 in 10.0 mi NNW 8.1 mph - N/A   Clear
3:53 AM 57.0 °F 46.0 °F 67% 30.05 in 10.0 mi NNW 8.1 mph - N/A   Clear
4:53 AM 55.0 °F 45.0 °F 69% 30.07 in 10.0 mi NW 6.9 mph - N/A   Clear
5:53 AM 54.0 °F 45.0 °F 72% 30.10 in 10.0 mi NW 4.6 mph - N/A   Clear
6:53 AM 53.1 °F 44.1 °F 71% 30.11 in 10.0 mi NNW 5.8 mph - N/A   Clear
7:53 AM 53.1 °F 44.1 °F 71% 30.13 in 10.0 mi NW 5.8 mph - N/A   Clear
8:53 AM 55.9 °F 45.0 °F 67% 30.16 in 10.0 mi NW 5.8 mph - N/A   Clear
9:53 AM 60.1 °F 44.1 °F 55% 30.18 in 10.0 mi NW 6.9 mph - N/A   Clear
10:53 AM 62.1 °F 37.9 °F 41% 30.19 in 10.0 mi NNW 10.4 mph 23.0 mph N/A   Clear
11:53 AM 63.0 °F 39.0 °F 41% 30.19 in 10.0 mi NNW 9.2 mph - N/A   Clear
12:53 PM 64.0 °F 37.9 °F 38% 30.19 in 10.0 mi NW 13.8 mph 18.4 mph N/A   Clear
1:45 PM 64.4 °F 37.4 °F 37% 30.17 in 10.0 mi NW 12.7 mph 20.7 mph N/A   Partly Cloudy
1:53 PM 64.9 °F 37.0 °F 36% 30.17 in 10.0 mi NNW 15.0 mph 23.0 mph N/A   Clear
2:53 PM 64.9 °F 37.0 °F 36% 30.15 in 10.0 mi North 8.1 mph 18.4 mph N/A   Clear
3:53 PM 64.9 °F 37.9 °F 37% 30.14 in 10.0 mi NNW 8.1 mph 18.4 mph N/A   Clear
4:53 PM 64.0 °F 37.9 °F 38% 30.14 in 10.0 mi NNW 9.2 mph 16.1 mph N/A   Clear
5:53 PM 62.1 °F 36.0 °F 38% 30.16 in 10.0 mi NNW 5.8 mph - N/A   Clear
6:53 PM 57.9 °F 37.9 °F 47% 30.17 in 10.0 mi Calm Calm - N/A   Clear
7:53 PM 48.9 °F 43.0 °F 80% 30.20 in 10.0 mi Calm Calm - N/A   Clear
8:53 PM 51.1 °F 44.1 °F 77% 30.22 in 10.0 mi Calm Calm - N/A   Clear
9:53 PM 48.9 °F 43.0 °F 80% 30.23 in 10.0 mi Calm Calm - N/A   Clear
10:53 PM 46.0 °F 43.0 °F 89% 30.24 in 10.0 mi Calm Calm - N/A   Clear
11:53 PM 46.0 °F 43.0 °F 89% 30.24 in 10.0 mi Calm Calm - N/A   Clear